Moore, Oklahoma, United States
Lat: 35.34N, Lon: 97.49W
Wx Zone: OKZ029
Local Info
Past Weather Observations for Wednesday, October 22, 2014

NOTE: This archive is for the closest National Weather Service station to Moore. Information may differ from the station used for current weather conditions.

Click here for Long-term Archive

Time Weather Temperature Dewpoint Humidity Pressure Winds Precip Visibility
23:52
Overcast
63°F / 17°C 61°F / 16°C 94% 30.12 in
(1020 mb)
E 3.5 mph
(E 6 kph)
- 8SM
22:52
Overcast
63°F / 17°C 61°F / 16°C 94% 30.12 in
(1020 mb)
Calm 0.00 in
(0.00 mm)
10SM
21:52
Overcast
63°F / 17°C 59°F / 15°C 88% 30.12 in
(1020 mb)
ESE 4.6 mph
(ESE 7 kph)
0.02 in
(0.51 mm)
10SM
20:52
Overcast
Light Rain
63°F / 17°C 59°F / 15°C 88% 30.12 in
(1020 mb)
Calm 0.05 in
(1.27 mm)
9SM
19:52
Overcast
Light Rain
64°F / 18°C 59°F / 15°C 83% 30.12 in
(1020 mb)
Calm 0.04 in
(1.02 mm)
10SM
18:52
Overcast
Rain
64°F / 18°C 61°F / 16°C 88% 30.12 in
(1020 mb)
SSW 8.1 mph
(SSW 13 kph)
0.10 in
(2.54 mm)
5SM
17:52
Overcast
Light Rain
70°F / 21°C 61°F / 16°C 73% 30.09 in
(1019 mb)
SW 8.1 mph
(SW 13 kph)
0.00 in
(0.00 mm)
8SM
16:52
Overcast
73°F / 23°C 57°F / 14°C 57% 30.09 in
(1019 mb)
S 9.2 mph
(S 15 kph)
- 10SM
15:52
Mostly Cloudy
75°F / 24°C 57°F / 14°C 54% 30.09 in
(1019 mb)
S 11.5 mph
(S 19 kph)
- 10SM
14:52
Mostly Cloudy
79°F / 26°C 57°F / 14°C 48% 30.09 in
(1019 mb)
S 13.8 mph
(S 22 kph)
- 10SM
13:52
Mostly Cloudy
77°F / 25°C 55°F / 13°C 47% 30.09 in
(1019 mb)
S 13.8 mph
(S 22 kph)
- 10SM
12:52
Mostly Cloudy
79°F / 26°C 57°F / 14°C 48% 30.12 in
(1020 mb)
S 12.7 mph
(S 20 kph)
- 10SM
11:52
Mostly Cloudy
75°F / 24°C 59°F / 15°C 57% 30.15 in
(1021 mb)
S 12.7 mph
(S 20 kph)
- 10SM
10:52
Mostly Cloudy
75°F / 24°C 61°F / 16°C 61% 30.18 in
(1022 mb)
S 10.4 mph
(S 17 kph)
- 10SM
09:52
Clear
72°F / 22°C 61°F / 16°C 69% 30.18 in
(1022 mb)
S 12.7 mph
(S 20 kph)
- 10SM
08:52
Clear
66°F / 19°C 61°F / 16°C 83% 30.15 in
(1021 mb)
S 6.9 mph
(S 11 kph)
- 9SM
07:52
Clear
Fog And Mist
61°F / 16°C 57°F / 14°C 88% 30.15 in
(1021 mb)
SSE 4.6 mph
(SSE 7 kph)
- 3SM
06:52
Clear
Fog And Mist
55°F / 13°C 54°F / 12°C 94% 30.12 in
(1020 mb)
SSE 5.8 mph
(SSE 9 kph)
- 3SM
05:52
Clear
Fog And Mist
55°F / 13°C 54°F / 12°C 94% 30.12 in
(1020 mb)
Calm - 5SM
04:52
Clear
Fog And Mist
57°F / 14°C 54°F / 12°C 88% 30.09 in
(1019 mb)
SE 4.6 mph
(SE 7 kph)
- 5SM
03:52
Clear
Fog And Mist
57°F / 14°C 55°F / 13°C 94% 30.09 in
(1019 mb)
SSE 3.5 mph
(SSE 6 kph)
- 5SM
02:52
Clear
Fog And Mist
57°F / 14°C 55°F / 13°C 94% 30.09 in
(1019 mb)
Calm - 6SM
01:52
Clear
59°F / 15°C 55°F / 13°C 88% 30.09 in
(1019 mb)
SSE 4.6 mph
(SSE 7 kph)
- 9SM
00:52
Clear
59°F / 15°C 55°F / 13°C 88% 30.06 in
(1018 mb)
SSE 5.8 mph
(SSE 9 kph)
- 10SM
Time Weather Temperature Dewpoint Humidity Pressure Winds Precip Visibility


Weather for websites

WeatherForYou.com, LLC is not responsible for any damages or problems caused by this service. Current weather conditions are obtained from the closest station including government and personal stations which may have varying degrees of accuracy. Weather forecasts are derived from the NOAA NDFD. Like all things, this site belongs to Jesus Christ... He just trusts me to maintain it. If you have any questions or comments email webmaster@weatherforyou.com

Copyright © 2014, WeatherForYou.com LLC. All rights reserved.